Weather History for Bishop, CA

Change the Weather History Date:

Wednesday, November 7, 2012

  Actual Average Record
Temperature  
Mean Temperature 54 °F 48 °F  
Max Temperature 75 °F 67 °F 82 °F (1958)
Min Temperature 33 °F 30 °F 22 °F (1953)
Degree Days  
Heating Degree Days 11 17  
Month to date heating degree days 82 108  
Since 1 July heating degree days 321 415  
Cooling Degree Days 0 0  
Month to date cooling degree days 0 0  
Year to date cooling degree days 1161 1104  
Growing Degree Days 4 (Base 50)    
Moisture  
Dew Point 22 °F    
Average Humidity 35    
Maximum Humidity 56    
Minimum Humidity 13    
Precipitation  
Precipitation 0.00 in 0.01 in 0.62 in (2004)
Month to date precipitation 0.00 0.10  
Year to date precipitation 2.67 3.96  
Snow  
Snow 0.00 in 0.00 in - ()
Month to date snowfall 0.0 0.0  
Since 1 July snowfall 0.0 0.0  
Since 1 September snowfall 0.0 0.0  
Snow Depth 0.00 in    
Sea Level Pressure  
Sea Level Pressure 29.97 in    
Wind  
Wind Speed 5 mph (NW)    
Max Wind Speed 14 mph    
Max Gust Speed 20 mph    
Visibility 10 miles    
Events      
T = Trace of Precipitation, MM = Missing Value Source: NWS Daily Summary

Daily Weather History Graph

Daily Weather History Graph

Search for Another Location

Airport:

Trip Planner

Search our weather history database for the weather conditions in past years. The results will help you decide how hot, cold, wet, or windy it might be!

Date:

Astronomy

Nov. 07, 2012 Rise Set
Actual Time 6:24 AM PST 4:48 PM PST
Civil Twilight 5:57 AM PST 5:16 PM PST
Nautical Twilight 5:26 AM PST 5:47 PM PST
Astronomical Twilight 4:55 AM PST 6:18 PM PST
Moon No Moon Rise 12:52 PM PST (11/7)
Length of Visible Light 11h 18m
Length of Day
10h 23m
Last Quarter, 42% of the Moon is Illuminated
Nov 7
Last Quarter
Nov 13
New
Nov 20
First Quarter
Nov 28
Full
Dec 6
Last Quarter

Hourly Weather History & Observations

Time (PST) Temp. Windchill Dew Point Humidity Pressure Visibility Wind Dir Wind Speed Gust Speed Precip Events Conditions
12:56 AM 39.9 °F 35.8 °F 19.9 °F 45% 30.09 in 10.0 mi NW 5.8 mph - N/A   Clear
1:56 AM 39.9 °F 33.9 °F 19.9 °F 45% 30.08 in 10.0 mi NW 9.2 mph - N/A   Clear
2:56 AM 37.9 °F 32.7 °F 19.0 °F 47% 30.07 in 10.0 mi North 6.9 mph - N/A   Clear
3:56 AM 37.9 °F 32.1 °F 19.9 °F 48% 30.06 in 10.0 mi NNW 8.1 mph - N/A   Clear
4:56 AM 36.0 °F 32.1 °F 19.0 °F 50% 30.09 in 10.0 mi NW 4.6 mph - N/A   Clear
5:56 AM 35.1 °F 30.1 °F 19.0 °F 52% 30.10 in 10.0 mi North 5.8 mph - N/A   Clear
6:56 AM 35.1 °F 31.0 °F 21.0 °F 57% 30.13 in 10.0 mi NNW 4.6 mph - N/A   Clear
7:56 AM 46.9 °F - 21.9 °F 37% 30.10 in 10.0 mi NE 5.8 mph - N/A   Clear
8:56 AM 57.0 °F - 21.9 °F 26% 30.09 in 10.0 mi Calm Calm - N/A   Clear
9:56 AM 63.0 °F - 21.0 °F 20% 30.05 in 10.0 mi Calm Calm - N/A   Clear
10:56 AM 66.9 °F - 19.9 °F 17% 30.01 in 10.0 mi WSW 3.5 mph - N/A   Clear
11:56 AM 71.1 °F - 21.0 °F 15% 29.96 in 10.0 mi Calm Calm - N/A   Clear
12:56 PM 73.9 °F - 21.0 °F 14% 29.92 in 10.0 mi ESE 3.5 mph - N/A   Clear
1:56 PM 75.0 °F - 21.9 °F 14% 29.89 in 10.0 mi Variable 4.6 mph - N/A   Clear
2:56 PM 73.9 °F - 21.0 °F 14% 29.87 in 10.0 mi South 8.1 mph - N/A   Clear
3:56 PM 73.0 °F - 23.0 °F 15% 29.85 in 10.0 mi South 11.5 mph - N/A   Clear
4:56 PM 66.0 °F - 23.0 °F 20% 29.87 in 10.0 mi SSE 8.1 mph - N/A   Clear
5:56 PM 61.0 °F - 23.0 °F 23% 29.88 in 10.0 mi South 6.9 mph - N/A   Clear
6:56 PM 55.0 °F - 24.1 °F 30% 29.90 in 10.0 mi West 5.8 mph - N/A   Clear
7:56 PM 48.9 °F - 23.0 °F 36% 29.89 in 10.0 mi NW 3.5 mph - N/A   Clear
8:56 PM 48.9 °F - 24.1 °F 38% 29.87 in 10.0 mi WNW 8.1 mph - N/A   Clear
9:56 PM 43.0 °F 38.8 °F 23.0 °F 45% 29.86 in 10.0 mi NNW 6.9 mph - N/A   Clear
10:56 PM 42.8 °F 40.1 °F 23.0 °F 46% 29.91 in 10.0 mi NNE 4.6 mph - N/A   Clear
11:56 PM 41.0 °F - 23.0 °F 49% 29.80 in 10.0 mi Calm Calm - N/A   Clear